Volver al catálogo

STARLINK-30433

ActivoComunicacionesVLEO
NORAD 57878·PAYLOAD·🇺🇸 United States

Lanzado Sep 16, 2023 desde Cape Canaveral Space Force Station

Loading…

Próximos Pases (próximas 24 horas)

TLE

ActualizadoSource: CelesTrak SupGP

Época: Sep 14, 2026, 20:58 UTC

1 57878C 23144Q   26257.87409722 -.00014587  00000+0 -52838-3 0  2572
2 57878  43.0006 296.4417 0001477 268.0382 134.2503 15.27583860    15

Sigue STARLINK-30433 en tiempo real con AllMySat

Download on the App Store